Year,Month,Day,Hour,Minute,Value (Times are PST for temperature in C)
2015,07,19,00,00,15.40
2015,07,19,00,01,15.50
2015,07,19,00,02,15.70
2015,07,19,00,03,15.90
2015,07,19,00,04,16.10
2015,07,19,00,05,16.00
2015,07,19,00,06,15.80
2015,07,19,00,07,15.70
2015,07,19,00,08,15.60
2015,07,19,00,09,15.60
2015,07,19,00,10,15.60
2015,07,19,00,11,15.60
2015,07,19,00,12,15.70
2015,07,19,00,13,15.70
2015,07,19,00,14,15.70
2015,07,19,00,15,15.70
2015,07,19,00,16,15.80
2015,07,19,00,17,15.80
2015,07,19,00,18,15.80
2015,07,19,00,19,15.80
2015,07,19,00,20,15.80
2015,07,19,00,21,15.80
2015,07,19,00,22,15.90
2015,07,19,00,23,15.90
2015,07,19,00,24,16.00
2015,07,19,00,25,16.00
2015,07,19,00,26,16.10
2015,07,19,00,27,16.10
2015,07,19,00,28,16.30
2015,07,19,00,29,16.40
2015,07,19,00,30,16.60
2015,07,19,00,31,16.70
2015,07,19,00,32,16.80
2015,07,19,00,33,17.00
2015,07,19,00,34,17.30
2015,07,19,00,35,17.50
2015,07,19,00,36,17.80
2015,07,19,00,37,17.90
2015,07,19,00,38,17.90
2015,07,19,00,39,18.10
2015,07,19,00,40,18.10
2015,07,19,00,41,18.20
2015,07,19,00,42,18.20
2015,07,19,00,43,18.20
2015,07,19,00,44,18.20
2015,07,19,00,45,18.30
2015,07,19,00,46,18.40
2015,07,19,00,47,18.40
2015,07,19,00,48,18.40
2015,07,19,00,49,18.40
2015,07,19,00,50,18.40
2015,07,19,00,51,18.40
2015,07,19,00,52,18.40
2015,07,19,00,53,18.40
2015,07,19,00,54,18.50
2015,07,19,00,55,18.60
2015,07,19,00,56,18.60
2015,07,19,00,57,18.70
2015,07,19,00,58,18.60
2015,07,19,00,59,18.30
2015,07,19,01,00,18.00
2015,07,19,01,01,17.70
2015,07,19,01,02,17.50
2015,07,19,01,03,17.40
2015,07,19,01,04,17.30
2015,07,19,01,05,17.20
2015,07,19,01,06,17.20
2015,07,19,01,07,17.10
2015,07,19,01,08,16.90
2015,07,19,01,09,16.60
2015,07,19,01,10,16.40
2015,07,19,01,11,16.20
2015,07,19,01,12,16.10
2015,07,19,01,13,16.10
2015,07,19,01,14,16.20
2015,07,19,01,15,16.20
2015,07,19,01,16,16.30
2015,07,19,01,17,16.30
2015,07,19,01,18,16.40
2015,07,19,01,19,16.40
2015,07,19,01,20,16.40
2015,07,19,01,21,16.30
2015,07,19,01,22,16.30
2015,07,19,01,23,16.20
2015,07,19,01,24,16.20
2015,07,19,01,25,16.20
2015,07,19,01,26,16.10
2015,07,19,01,27,16.00
2015,07,19,01,28,15.90
2015,07,19,01,29,15.70
2015,07,19,01,30,15.60
2015,07,19,01,31,15.60
2015,07,19,01,32,15.60
2015,07,19,01,33,15.50
2015,07,19,01,34,15.40
2015,07,19,01,35,15.30
2015,07,19,01,36,15.30
2015,07,19,01,37,15.30
2015,07,19,01,38,15.30
2015,07,19,01,39,15.30
2015,07,19,01,40,15.30
2015,07,19,01,41,15.30
2015,07,19,01,42,15.40
2015,07,19,01,43,15.60
2015,07,19,01,44,15.90
2015,07,19,01,45,16.20
2015,07,19,01,46,16.60
2015,07,19,01,47,16.80
2015,07,19,01,48,17.10
2015,07,19,01,49,17.20
2015,07,19,01,50,17.40
2015,07,19,01,51,17.50
2015,07,19,01,52,17.70
2015,07,19,01,53,17.70
2015,07,19,01,54,17.80
2015,07,19,01,55,17.80
2015,07,19,01,56,17.70
2015,07,19,01,57,17.60
2015,07,19,01,58,17.50
2015,07,19,01,59,17.30
2015,07,19,02,00,17.10
2015,07,19,02,01,17.00
2015,07,19,02,02,16.90
2015,07,19,02,03,16.80
2015,07,19,02,04,16.80
2015,07,19,02,05,16.80
2015,07,19,02,06,16.70
2015,07,19,02,07,16.70
2015,07,19,02,08,16.70
2015,07,19,02,09,16.70
2015,07,19,02,10,16.70
2015,07,19,02,11,16.80
2015,07,19,02,12,16.90
2015,07,19,02,13,17.00
2015,07,19,02,14,17.10
2015,07,19,02,15,17.10
2015,07,19,02,16,17.10
2015,07,19,02,17,17.10
2015,07,19,02,18,17.10
2015,07,19,02,19,17.10
2015,07,19,02,20,17.10
2015,07,19,02,21,17.00
2015,07,19,02,22,17.00
2015,07,19,02,23,17.00
2015,07,19,02,24,17.00
2015,07,19,02,25,17.00
2015,07,19,02,26,17.00
2015,07,19,02,27,17.00
2015,07,19,02,28,16.90
2015,07,19,02,29,16.90
2015,07,19,02,30,16.90
2015,07,19,02,31,16.90
2015,07,19,02,32,16.80
2015,07,19,02,33,16.80
2015,07,19,02,34,16.70
2015,07,19,02,35,16.60
2015,07,19,02,36,16.50
2015,07,19,02,37,16.50
2015,07,19,02,38,16.40
2015,07,19,02,39,16.40
2015,07,19,02,40,16.40
2015,07,19,02,41,16.40
2015,07,19,02,42,16.40
2015,07,19,02,43,16.40
2015,07,19,02,44,16.30
2015,07,19,02,45,16.30
2015,07,19,02,46,16.30
2015,07,19,02,47,16.30
2015,07,19,02,48,16.30
2015,07,19,02,49,16.30
2015,07,19,02,50,16.30
2015,07,19,02,51,16.30
2015,07,19,02,52,16.30
2015,07,19,02,53,16.30
2015,07,19,02,54,16.30
2015,07,19,02,55,16.30
2015,07,19,02,56,16.30
2015,07,19,02,57,16.40
2015,07,19,02,58,16.40
2015,07,19,02,59,16.40
2015,07,19,03,00,16.60
2015,07,19,03,01,16.60
2015,07,19,03,02,16.60
2015,07,19,03,03,16.60
2015,07,19,03,04,16.60
2015,07,19,03,05,16.50
2015,07,19,03,06,16.40
2015,07,19,03,07,16.40
2015,07,19,03,08,16.30
2015,07,19,03,09,16.30
2015,07,19,03,10,16.40
2015,07,19,03,11,16.70
2015,07,19,03,12,17.00
2015,07,19,03,13,17.30
2015,07,19,03,14,17.40
2015,07,19,03,15,17.40
2015,07,19,03,16,17.50
2015,07,19,03,17,17.40
2015,07,19,03,18,17.30
2015,07,19,03,19,17.30
2015,07,19,03,20,17.30
2015,07,19,03,21,17.30
2015,07,19,03,22,17.30
2015,07,19,03,23,17.30
2015,07,19,03,24,17.30
2015,07,19,03,25,17.40
2015,07,19,03,26,17.50
2015,07,19,03,27,17.70
2015,07,19,03,28,17.90
2015,07,19,03,29,17.90
2015,07,19,03,30,17.90
2015,07,19,03,31,17.70
2015,07,19,03,32,17.60
2015,07,19,03,33,17.60
2015,07,19,03,34,17.70
2015,07,19,03,35,17.80
2015,07,19,03,36,18.00
2015,07,19,03,37,18.10
2015,07,19,03,38,18.20
2015,07,19,03,39,18.30
2015,07,19,03,40,18.30
2015,07,19,03,41,18.30
2015,07,19,03,42,18.10
2015,07,19,03,43,17.80
2015,07,19,03,44,17.70
2015,07,19,03,45,17.40
2015,07,19,03,46,17.40
2015,07,19,03,47,17.50
2015,07,19,03,48,17.60
2015,07,19,03,49,17.80
2015,07,19,03,50,17.90
2015,07,19,03,51,17.80
2015,07,19,03,52,17.80
2015,07,19,03,53,17.80
2015,07,19,03,54,17.80
2015,07,19,03,55,17.80
2015,07,19,03,56,17.70
2015,07,19,03,57,17.60
2015,07,19,03,58,17.40
2015,07,19,03,59,17.20
2015,07,19,04,00,17.00
2015,07,19,04,01,16.80
2015,07,19,04,02,16.70
2015,07,19,04,03,16.50
2015,07,19,04,04,16.40
2015,07,19,04,05,16.30
2015,07,19,04,06,16.30
2015,07,19,04,07,16.20
2015,07,19,04,08,16.20
2015,07,19,04,09,16.20
2015,07,19,04,10,16.20
2015,07,19,04,11,16.20
2015,07,19,04,12,16.20
2015,07,19,04,13,16.20
2015,07,19,04,14,16.10
2015,07,19,04,15,16.10
2015,07,19,04,16,16.00
2015,07,19,04,17,16.00
2015,07,19,04,18,15.90
2015,07,19,04,19,15.90
2015,07,19,04,20,15.90
2015,07,19,04,21,15.90
2015,07,19,04,22,15.90
2015,07,19,04,23,16.00
2015,07,19,04,24,16.00
2015,07,19,04,25,16.00
2015,07,19,04,26,15.90
2015,07,19,04,27,15.90
2015,07,19,04,28,15.90
2015,07,19,04,29,15.90
2015,07,19,04,30,15.90
2015,07,19,04,31,15.80
2015,07,19,04,32,15.80
2015,07,19,04,33,15.80
2015,07,19,04,34,15.80
2015,07,19,04,35,15.80
2015,07,19,04,36,15.80
2015,07,19,04,37,15.70
2015,07,19,04,38,15.70
2015,07,19,04,39,15.70
2015,07,19,04,40,15.70
2015,07,19,04,41,15.70
2015,07,19,04,42,15.70
2015,07,19,04,43,15.70
2015,07,19,04,44,15.70
2015,07,19,04,45,15.70
2015,07,19,04,46,15.70
2015,07,19,04,47,15.70
2015,07,19,04,48,15.70
2015,07,19,04,49,15.70
2015,07,19,04,50,15.70
2015,07,19,04,51,15.70
2015,07,19,04,52,15.70
2015,07,19,04,53,15.70
2015,07,19,04,54,15.70
2015,07,19,04,55,15.70
2015,07,19,04,56,15.70
2015,07,19,04,57,15.70
2015,07,19,04,58,15.80
2015,07,19,04,59,15.90
2015,07,19,05,00,16.00
2015,07,19,05,01,16.10
2015,07,19,05,02,16.10
2015,07,19,05,03,16.20
2015,07,19,05,04,16.30
2015,07,19,05,05,16.40
2015,07,19,05,06,16.40
2015,07,19,05,07,16.40
2015,07,19,05,08,16.50
2015,07,19,05,09,16.60
2015,07,19,05,10,16.90
2015,07,19,05,11,17.10
2015,07,19,05,12,17.40
2015,07,19,05,13,17.70
2015,07,19,05,14,18.10
2015,07,19,05,15,18.30
2015,07,19,05,16,18.50
2015,07,19,05,17,18.80
2015,07,19,05,18,19.00
2015,07,19,05,19,19.10
2015,07,19,05,20,19.10
2015,07,19,05,21,19.00
2015,07,19,05,22,18.90
2015,07,19,05,23,18.70
2015,07,19,05,24,18.50
2015,07,19,05,25,18.40
2015,07,19,05,26,18.20
2015,07,19,05,27,18.20
2015,07,19,05,28,18.20
2015,07,19,05,29,18.20
2015,07,19,05,30,18.20
2015,07,19,05,31,18.20
2015,07,19,05,32,18.10
2015,07,19,05,33,17.90
2015,07,19,05,34,17.70
2015,07,19,05,35,17.70
2015,07,19,05,36,17.60
2015,07,19,05,37,17.50
2015,07,19,05,38,17.40
2015,07,19,05,39,17.30
2015,07,19,05,40,17.20
2015,07,19,05,41,17.10
2015,07,19,05,42,17.00
2015,07,19,05,43,16.80
2015,07,19,05,44,16.70
2015,07,19,05,45,16.50
2015,07,19,05,46,16.50
2015,07,19,05,47,16.50
2015,07,19,05,48,16.60
2015,07,19,05,49,16.80
2015,07,19,05,50,17.00
2015,07,19,05,51,17.20
2015,07,19,05,52,17.30
2015,07,19,05,53,17.50
2015,07,19,05,54,17.60
2015,07,19,05,55,17.60
2015,07,19,05,56,17.50
2015,07,19,05,57,17.40
2015,07,19,05,58,17.40
2015,07,19,05,59,17.40
2015,07,19,06,00,17.40
2015,07,19,06,01,17.40
2015,07,19,06,02,17.40
2015,07,19,06,03,17.30
2015,07,19,06,04,17.00
2015,07,19,06,05,16.80
2015,07,19,06,06,16.50
2015,07,19,06,07,16.20
2015,07,19,06,08,16.00
2015,07,19,06,09,15.80
2015,07,19,06,10,15.70
2015,07,19,06,11,15.60
2015,07,19,06,12,15.50
2015,07,19,06,13,15.60
2015,07,19,06,14,15.60
2015,07,19,06,15,15.70
2015,07,19,06,16,15.70
2015,07,19,06,17,15.70
2015,07,19,06,18,15.60
2015,07,19,06,19,15.50
2015,07,19,06,20,15.40
2015,07,19,06,21,15.30
2015,07,19,06,22,15.20
2015,07,19,06,23,15.10
2015,07,19,06,24,15.10
2015,07,19,06,25,15.10
2015,07,19,06,26,15.10
2015,07,19,06,27,15.10
2015,07,19,06,28,15.00
2015,07,19,06,29,15.00
2015,07,19,06,30,14.90
2015,07,19,06,31,14.80
2015,07,19,06,32,14.80
2015,07,19,06,33,14.70
2015,07,19,06,34,14.60
2015,07,19,06,35,14.50
2015,07,19,06,36,14.40
2015,07,19,06,37,14.30
2015,07,19,06,38,14.20
2015,07,19,06,39,14.10
2015,07,19,06,40,14.00
2015,07,19,06,41,13.90
2015,07,19,06,42,13.90
2015,07,19,06,43,13.80
2015,07,19,06,44,13.80
2015,07,19,06,45,13.70
2015,07,19,06,46,13.70
2015,07,19,06,47,13.80
2015,07,19,06,48,13.80
2015,07,19,06,49,13.80
2015,07,19,06,50,13.90
2015,07,19,06,51,13.90
2015,07,19,06,52,14.00
2015,07,19,06,53,14.00
2015,07,19,06,54,14.10
2015,07,19,06,55,14.10
2015,07,19,06,56,14.10
2015,07,19,06,57,14.20
2015,07,19,06,58,14.30
2015,07,19,06,59,14.30
2015,07,19,07,00,14.30
2015,07,19,07,01,14.30
2015,07,19,07,02,14.40
2015,07,19,07,03,14.50
2015,07,19,07,04,14.50
2015,07,19,07,05,14.50
2015,07,19,07,06,14.50
2015,07,19,07,07,14.50
2015,07,19,07,08,14.50
2015,07,19,07,09,14.50
2015,07,19,07,10,14.50
2015,07,19,07,11,14.40
2015,07,19,07,12,14.30
2015,07,19,07,13,14.30
2015,07,19,07,14,14.20
2015,07,19,07,15,14.20
2015,07,19,07,16,14.20
2015,07,19,07,17,14.30
2015,07,19,07,18,14.40
2015,07,19,07,19,14.50
2015,07,19,07,20,14.60
2015,07,19,07,21,14.70
2015,07,19,07,22,14.90
2015,07,19,07,23,14.90
2015,07,19,07,24,15.00
2015,07,19,07,25,15.10
2015,07,19,07,26,15.10
2015,07,19,07,27,15.20
2015,07,19,07,28,15.20
2015,07,19,07,29,15.30
2015,07,19,07,30,15.30
2015,07,19,07,31,15.30
2015,07,19,07,32,15.40
2015,07,19,07,33,15.40
2015,07,19,07,34,15.50
2015,07,19,07,35,15.60
2015,07,19,07,36,15.60
2015,07,19,07,37,15.60
2015,07,19,07,38,15.70
2015,07,19,07,39,15.70
2015,07,19,07,40,15.80
2015,07,19,07,41,15.80
2015,07,19,07,42,15.80
2015,07,19,07,43,15.80
2015,07,19,07,44,15.80
2015,07,19,07,45,15.80
2015,07,19,07,46,15.80
2015,07,19,07,47,15.80
2015,07,19,07,48,15.90
2015,07,19,07,49,15.90
2015,07,19,07,50,16.00
2015,07,19,07,51,16.00
2015,07,19,07,52,16.00
2015,07,19,07,53,16.00
2015,07,19,07,54,15.90
2015,07,19,07,55,15.90
2015,07,19,07,56,15.90
2015,07,19,07,57,15.80
2015,07,19,07,58,15.90
2015,07,19,07,59,15.90
2015,07,19,08,00,15.90
2015,07,19,08,01,15.90
2015,07,19,08,02,15.90
2015,07,19,08,03,16.00
2015,07,19,08,04,16.10
2015,07,19,08,05,16.10
2015,07,19,08,06,16.10
2015,07,19,08,07,16.10
2015,07,19,08,08,16.10
2015,07,19,08,09,16.10
2015,07,19,08,10,16.10
2015,07,19,08,11,16.10
2015,07,19,08,12,16.10
2015,07,19,08,13,16.10
2015,07,19,08,14,16.10
2015,07,19,08,15,16.10
2015,07,19,08,16,16.10
2015,07,19,08,17,16.10
2015,07,19,08,18,16.10
2015,07,19,08,19,16.20
2015,07,19,08,20,16.30
2015,07,19,08,21,16.40
2015,07,19,08,22,16.40
2015,07,19,08,23,16.50
2015,07,19,08,24,16.50
2015,07,19,08,25,16.50
2015,07,19,08,26,16.50
2015,07,19,08,27,16.50
2015,07,19,08,28,16.60
2015,07,19,08,29,16.60
2015,07,19,08,30,16.60
2015,07,19,08,31,16.70
2015,07,19,08,32,16.70
2015,07,19,08,33,16.70
2015,07,19,08,34,16.80
2015,07,19,08,35,16.80
2015,07,19,08,36,16.90
2015,07,19,08,37,16.90
2015,07,19,08,38,17.00
2015,07,19,08,39,17.00
2015,07,19,08,40,17.10
2015,07,19,08,41,17.10
2015,07,19,08,42,17.10
2015,07,19,08,43,17.10
2015,07,19,08,44,17.10
2015,07,19,08,45,17.20
2015,07,19,08,46,17.20
2015,07,19,08,47,17.20
2015,07,19,08,48,17.30
2015,07,19,08,49,17.30
2015,07,19,08,50,17.30
2015,07,19,08,51,17.40
2015,07,19,08,52,17.50
2015,07,19,08,53,17.60
2015,07,19,08,54,17.60
2015,07,19,08,55,17.70
2015,07,19,08,56,17.70
2015,07,19,08,57,17.60
2015,07,19,08,58,17.60
2015,07,19,08,59,17.60
2015,07,19,09,00,17.60
2015,07,19,09,01,17.70
2015,07,19,09,02,17.70
2015,07,19,09,03,17.70
2015,07,19,09,04,17.70
2015,07,19,09,05,17.70
2015,07,19,09,06,17.70
2015,07,19,09,07,17.70
2015,07,19,09,08,17.70
2015,07,19,09,09,17.80
2015,07,19,09,10,17.70
2015,07,19,09,11,17.80
2015,07,19,09,12,17.70
2015,07,19,09,13,17.70
2015,07,19,09,14,17.60
2015,07,19,09,15,17.60
2015,07,19,09,16,17.60
2015,07,19,09,17,17.70
2015,07,19,09,18,17.70
2015,07,19,09,19,17.70
2015,07,19,09,20,17.60
2015,07,19,09,21,17.50
2015,07,19,09,22,17.40
2015,07,19,09,23,17.50
2015,07,19,09,24,17.50
2015,07,19,09,25,17.50
2015,07,19,09,26,17.40
2015,07,19,09,27,17.40
2015,07,19,09,28,17.30
2015,07,19,09,29,17.30
2015,07,19,09,30,17.30
2015,07,19,09,31,17.30
2015,07,19,09,32,17.20
2015,07,19,09,33,17.20
2015,07,19,09,34,17.20
2015,07,19,09,35,17.10
2015,07,19,09,36,17.10
2015,07,19,09,37,17.10
2015,07,19,09,38,17.20
2015,07,19,09,39,17.20
2015,07,19,09,40,17.20
2015,07,19,09,41,17.10
2015,07,19,09,42,17.10
2015,07,19,09,43,17.10
2015,07,19,09,44,17.00
2015,07,19,09,45,17.00
2015,07,19,09,46,16.90
2015,07,19,09,47,16.90
2015,07,19,09,48,16.80
2015,07,19,09,49,16.80
2015,07,19,09,50,16.80
2015,07,19,09,51,16.80
2015,07,19,09,52,16.80
2015,07,19,09,53,16.80
2015,07,19,09,54,16.90
2015,07,19,09,55,17.00
2015,07,19,09,56,17.10
2015,07,19,09,57,17.20
2015,07,19,09,58,17.20
2015,07,19,09,59,17.20
2015,07,19,10,00,17.20
2015,07,19,10,01,17.20
2015,07,19,10,02,17.20
2015,07,19,10,03,17.20
2015,07,19,10,04,17.30
2015,07,19,10,05,17.30
2015,07,19,10,06,17.30
2015,07,19,10,07,17.40
2015,07,19,10,08,17.40
2015,07,19,10,09,17.50
2015,07,19,10,10,17.60
2015,07,19,10,11,17.60
2015,07,19,10,12,17.50
2015,07,19,10,13,17.50
2015,07,19,10,14,17.50
2015,07,19,10,15,17.80
2015,07,19,10,16,18.00
2015,07,19,10,17,18.20
2015,07,19,10,18,18.30
2015,07,19,10,19,18.30
2015,07,19,10,20,18.30
2015,07,19,10,21,18.30
2015,07,19,10,22,18.30
2015,07,19,10,23,18.40
2015,07,19,10,24,18.50
2015,07,19,10,25,18.60
2015,07,19,10,26,18.70
2015,07,19,10,27,18.70
2015,07,19,10,28,18.70
2015,07,19,10,29,18.90
2015,07,19,10,30,19.20
2015,07,19,10,31,19.30
2015,07,19,10,32,19.40
2015,07,19,10,33,19.50
2015,07,19,10,34,19.60
2015,07,19,10,35,19.70
2015,07,19,10,36,19.80
2015,07,19,10,37,19.80
2015,07,19,10,38,19.80
2015,07,19,10,39,19.80
2015,07,19,10,40,19.90
2015,07,19,10,41,19.90
2015,07,19,10,42,19.90
2015,07,19,10,43,19.90
2015,07,19,10,44,19.90
2015,07,19,10,45,20.00
2015,07,19,10,46,20.00
2015,07,19,10,47,20.10
2015,07,19,10,48,20.20
2015,07,19,10,49,20.30
2015,07,19,10,50,20.40
2015,07,19,10,51,20.60
2015,07,19,10,52,20.70
2015,07,19,10,53,20.70
2015,07,19,10,54,20.70
2015,07,19,10,55,20.80
2015,07,19,10,56,20.80
2015,07,19,10,57,20.90
2015,07,19,10,58,20.90
2015,07,19,10,59,21.00
2015,07,19,11,00,21.10
2015,07,19,11,01,21.10
2015,07,19,11,02,21.10
2015,07,19,11,03,21.10
2015,07,19,11,04,21.20
2015,07,19,11,05,21.20
2015,07,19,11,06,21.20
2015,07,19,11,07,21.20
2015,07,19,11,08,21.30
2015,07,19,11,09,21.30
2015,07,19,11,10,21.30
2015,07,19,11,11,21.30
2015,07,19,11,12,21.40
2015,07,19,11,13,21.40
2015,07,19,11,14,21.40
2015,07,19,11,15,21.40
2015,07,19,11,16,21.40
2015,07,19,11,17,21.40
2015,07,19,11,18,21.40
2015,07,19,11,19,21.40
2015,07,19,11,20,21.40
2015,07,19,11,21,21.40
2015,07,19,11,22,21.40
2015,07,19,11,23,21.40
2015,07,19,11,24,21.40
2015,07,19,11,25,21.40
2015,07,19,11,26,21.40
2015,07,19,11,27,21.50
2015,07,19,11,28,21.50
2015,07,19,11,29,21.50
2015,07,19,11,30,21.50
2015,07,19,11,31,21.50
2015,07,19,11,32,21.50
2015,07,19,11,33,21.60
2015,07,19,11,34,21.60
2015,07,19,11,35,21.60
2015,07,19,11,36,21.60
2015,07,19,11,37,21.60
2015,07,19,11,38,21.60
2015,07,19,11,39,21.60
2015,07,19,11,40,21.60
2015,07,19,11,41,21.60
2015,07,19,11,42,21.60
2015,07,19,11,43,21.60
2015,07,19,11,44,21.60
2015,07,19,11,45,21.60
2015,07,19,11,46,21.60
2015,07,19,11,47,21.60
2015,07,19,11,48,21.70
2015,07,19,11,49,21.70
2015,07,19,11,50,21.70
2015,07,19,11,51,21.70
2015,07,19,11,52,21.70
2015,07,19,11,53,21.70
2015,07,19,11,54,21.70
2015,07,19,11,55,21.70
2015,07,19,11,56,21.70
2015,07,19,11,57,21.70
2015,07,19,11,58,21.70
2015,07,19,11,59,21.70
2015,07,19,12,00,21.70
2015,07,19,12,01,21.70
2015,07,19,12,02,21.70
2015,07,19,12,03,21.70
2015,07,19,12,04,21.70
2015,07,19,12,05,21.70
2015,07,19,12,06,21.70
2015,07,19,12,07,21.80
2015,07,19,12,08,21.80
2015,07,19,12,09,21.80
2015,07,19,12,10,21.80
2015,07,19,12,11,21.80
2015,07,19,12,12,21.80
2015,07,19,12,13,21.80
2015,07,19,12,14,21.80
2015,07,19,12,15,21.80
2015,07,19,12,16,21.80
2015,07,19,12,17,21.90
2015,07,19,12,18,21.90
2015,07,19,12,19,21.90
2015,07,19,12,20,21.90
2015,07,19,12,21,21.90
2015,07,19,12,22,21.90
2015,07,19,12,23,21.90
2015,07,19,12,24,21.90
2015,07,19,12,25,21.90
2015,07,19,12,26,21.90
2015,07,19,12,27,21.90
2015,07,19,12,28,21.90
2015,07,19,12,29,21.90
2015,07,19,12,30,21.90
2015,07,19,12,31,21.90
2015,07,19,12,32,21.90
2015,07,19,12,33,21.90
2015,07,19,12,34,21.90
2015,07,19,12,35,21.90
2015,07,19,12,36,21.90
2015,07,19,12,37,21.90
2015,07,19,12,38,22.00
2015,07,19,12,39,22.00
2015,07,19,12,40,22.10
2015,07,19,12,41,22.10
2015,07,19,12,42,22.10
2015,07,19,12,43,22.20
2015,07,19,12,44,22.20
2015,07,19,12,45,22.20
2015,07,19,12,46,22.20
2015,07,19,12,47,22.20
2015,07,19,12,48,22.20
2015,07,19,12,49,22.20
2015,07,19,12,50,22.30
2015,07,19,12,51,22.30
2015,07,19,12,52,22.40
2015,07,19,12,53,22.40
2015,07,19,12,54,22.40
2015,07,19,12,55,22.40
2015,07,19,12,56,22.40
2015,07,19,12,57,22.40
2015,07,19,12,58,22.40
2015,07,19,12,59,22.40
2015,07,19,13,00,22.40
2015,07,19,13,01,22.40
2015,07,19,13,02,22.50
2015,07,19,13,03,22.50
2015,07,19,13,04,22.50
2015,07,19,13,05,22.50
2015,07,19,13,06,22.60
2015,07,19,13,07,22.70
2015,07,19,13,08,22.70
2015,07,19,13,09,22.70
2015,07,19,13,10,22.80
2015,07,19,13,11,22.80
2015,07,19,13,12,22.90
2015,07,19,13,13,22.90
2015,07,19,13,14,22.90
2015,07,19,13,15,23.00
2015,07,19,13,16,23.00
2015,07,19,13,17,23.10
2015,07,19,13,18,23.10
2015,07,19,13,19,23.10
2015,07,19,13,20,23.20
2015,07,19,13,21,23.20
2015,07,19,13,22,23.20
2015,07,19,13,23,23.20
2015,07,19,13,24,23.20
2015,07,19,13,25,23.20
2015,07,19,13,26,23.20
2015,07,19,13,27,23.20
2015,07,19,13,28,23.20
2015,07,19,13,29,23.30
2015,07,19,13,30,23.30
2015,07,19,13,31,23.30
2015,07,19,13,32,23.30
2015,07,19,13,33,23.30
2015,07,19,13,34,23.30
2015,07,19,13,35,23.30
2015,07,19,13,36,23.30
2015,07,19,13,37,23.30
2015,07,19,13,38,23.30
2015,07,19,13,39,23.30
2015,07,19,13,40,23.30
2015,07,19,13,41,23.30
2015,07,19,13,42,23.40
2015,07,19,13,43,23.40
2015,07,19,13,44,23.40
2015,07,19,13,45,23.50
2015,07,19,13,46,23.50
2015,07,19,13,47,23.60
2015,07,19,13,48,23.60
2015,07,19,13,49,23.60
2015,07,19,13,50,23.60
2015,07,19,13,51,23.60
2015,07,19,13,52,23.70
2015,07,19,13,53,23.70
2015,07,19,13,54,23.70
2015,07,19,13,55,23.70
2015,07,19,13,56,23.70
2015,07,19,13,57,23.80
2015,07,19,13,58,23.80
2015,07,19,13,59,23.80
2015,07,19,14,00,23.90
2015,07,19,14,01,23.90
2015,07,19,14,02,23.90
2015,07,19,14,03,24.00
2015,07,19,14,04,24.00
2015,07,19,14,05,24.10
2015,07,19,14,06,24.10
2015,07,19,14,07,24.20
2015,07,19,14,08,24.20
2015,07,19,14,09,24.20
2015,07,19,14,10,24.30
2015,07,19,14,11,24.30
2015,07,19,14,12,24.30
2015,07,19,14,13,24.40
2015,07,19,14,14,24.40
2015,07,19,14,15,24.40
2015,07,19,14,16,24.50
2015,07,19,14,17,24.50
2015,07,19,14,18,24.50
2015,07,19,14,19,24.50
2015,07,19,14,20,24.50
2015,07,19,14,21,24.50
2015,07,19,14,22,24.50
2015,07,19,14,23,24.60
2015,07,19,14,24,24.60
2015,07,19,14,25,24.60
2015,07,19,14,26,24.60
2015,07,19,14,27,24.70
2015,07,19,14,28,24.70
2015,07,19,14,29,24.80
2015,07,19,14,30,24.90
2015,07,19,14,31,24.90
2015,07,19,14,32,25.00
2015,07,19,14,33,25.00
2015,07,19,14,34,25.00
2015,07,19,14,35,25.00
2015,07,19,14,36,25.10
2015,07,19,14,37,25.10
2015,07,19,14,38,25.10
2015,07,19,14,39,25.10
2015,07,19,14,40,25.10
2015,07,19,14,41,25.10
2015,07,19,14,42,25.10
2015,07,19,14,43,25.10
2015,07,19,14,44,25.10
2015,07,19,14,45,25.10
2015,07,19,14,46,25.10
2015,07,19,14,47,25.10
2015,07,19,14,48,25.10
2015,07,19,14,49,25.10
2015,07,19,14,50,25.20
2015,07,19,14,51,25.20
2015,07,19,14,52,25.30
2015,07,19,14,53,25.30
2015,07,19,14,54,25.30
2015,07,19,14,55,25.30
2015,07,19,14,56,25.10
2015,07,19,14,57,24.80
2015,07,19,14,58,24.50
2015,07,19,14,59,24.10
2015,07,19,15,00,23.70
2015,07,19,15,01,23.50
2015,07,19,15,02,23.30
2015,07,19,15,03,23.20
2015,07,19,15,04,23.00
2015,07,19,15,05,22.70
2015,07,19,15,06,22.40
2015,07,19,15,07,22.10
2015,07,19,15,08,21.90
2015,07,19,15,09,21.80
2015,07,19,15,10,21.70
2015,07,19,15,11,21.80
2015,07,19,15,12,21.80
2015,07,19,15,13,21.80
2015,07,19,15,14,21.70
2015,07,19,15,15,21.60
2015,07,19,15,16,21.50
2015,07,19,15,17,21.50
2015,07,19,15,18,21.40
2015,07,19,15,19,21.40
2015,07,19,15,20,21.50
2015,07,19,15,21,21.60
2015,07,19,15,22,21.80
2015,07,19,15,23,22.00
2015,07,19,15,24,22.20
2015,07,19,15,25,22.50
2015,07,19,15,26,22.70
2015,07,19,15,27,22.90
2015,07,19,15,28,23.10
2015,07,19,15,29,23.20
2015,07,19,15,30,23.20
2015,07,19,15,31,23.20
2015,07,19,15,32,23.20
2015,07,19,15,33,23.30
2015,07,19,15,34,23.20
2015,07,19,15,35,23.10
2015,07,19,15,36,22.90
2015,07,19,15,37,22.70
2015,07,19,15,38,22.40
2015,07,19,15,39,22.00
2015,07,19,15,40,21.60
2015,07,19,15,41,21.40
2015,07,19,15,42,21.20
2015,07,19,15,43,21.00
2015,07,19,15,44,20.80
2015,07,19,15,45,20.70
2015,07,19,15,46,20.70
2015,07,19,15,47,20.70
2015,07,19,15,48,20.70
2015,07,19,15,49,20.60
2015,07,19,15,50,20.50
2015,07,19,15,51,20.50
2015,07,19,15,52,20.50
2015,07,19,15,53,20.40
2015,07,19,15,54,20.40
2015,07,19,15,55,20.40
2015,07,19,15,56,20.40
2015,07,19,15,57,20.50
2015,07,19,15,58,20.60
2015,07,19,15,59,20.50
2015,07,19,16,00,20.60
2015,07,19,16,01,20.60
2015,07,19,16,02,20.70
2015,07,19,16,03,20.80
2015,07,19,16,04,20.80
2015,07,19,16,05,20.90
2015,07,19,16,06,21.00
2015,07,19,16,07,21.20
2015,07,19,16,08,21.30
2015,07,19,16,09,21.30
2015,07,19,16,10,21.30
2015,07,19,16,11,21.30
2015,07,19,16,12,21.30
2015,07,19,16,13,21.40
2015,07,19,16,14,21.40
2015,07,19,16,15,21.30
2015,07,19,16,16,21.10
2015,07,19,16,17,20.90
2015,07,19,16,18,20.80
2015,07,19,16,19,20.70
2015,07,19,16,20,20.60
2015,07,19,16,21,20.60
2015,07,19,16,22,20.70
2015,07,19,16,23,20.80
2015,07,19,16,24,20.70
2015,07,19,16,25,20.70
2015,07,19,16,26,20.50
2015,07,19,16,27,20.30
2015,07,19,16,28,20.30
2015,07,19,16,29,20.40
2015,07,19,16,30,20.60
2015,07,19,16,31,20.50
2015,07,19,16,32,20.50
2015,07,19,16,33,20.60
2015,07,19,16,34,20.80
2015,07,19,16,35,21.00
2015,07,19,16,36,21.20
2015,07,19,16,37,21.30
2015,07,19,16,38,21.30
2015,07,19,16,39,21.20
2015,07,19,16,40,21.20
2015,07,19,16,41,21.40
2015,07,19,16,42,21.40
2015,07,19,16,43,21.40
2015,07,19,16,44,21.10
2015,07,19,16,45,20.40
2015,07,19,16,46,19.70
2015,07,19,16,47,19.30
2015,07,19,16,48,19.10
2015,07,19,16,49,19.10
2015,07,19,16,50,19.00
2015,07,19,16,51,19.20
2015,07,19,16,52,19.80
2015,07,19,16,53,20.00
2015,07,19,16,54,19.80
2015,07,19,16,55,19.50
2015,07,19,16,56,19.40
2015,07,19,16,57,19.50
2015,07,19,16,58,19.90
2015,07,19,16,59,20.30
2015,07,19,17,00,21.00
2015,07,19,17,01,21.50
2015,07,19,17,02,21.80
2015,07,19,17,03,22.10
2015,07,19,17,04,22.30
2015,07,19,17,05,22.20
2015,07,19,17,06,22.00
2015,07,19,17,07,22.20
2015,07,19,17,08,22.30
2015,07,19,17,09,21.90
2015,07,19,17,10,21.30
2015,07,19,17,11,20.90
2015,07,19,17,12,20.70
2015,07,19,17,13,20.30
2015,07,19,17,14,19.90
2015,07,19,17,15,19.60
2015,07,19,17,16,19.50
2015,07,19,17,17,19.40
2015,07,19,17,18,19.40
2015,07,19,17,19,19.50